Home > Weather > Mazari Sharif > Past weeks

Flag for Afghanistan Past Weather in Mazari Sharif, Afghanistan — Yesterday and Last 2 Weeks

Now
97 °F

Sunny.


Feels Like: 93 °F
Forecast: 78 / 103 °F
Wind: 7 mph from West

Location: Termez Airport

Current Time: Jun 25, 2016 at 6:37:38 PM

Latest Report: Jun 25, 2016 at 5:30 PM


Visibility: 10 mi

Pressure: 29.68 "Hg

Humidity: 17%

Dew Point: 45 °F

Location of Mazari SharifLocation

Past Weather in Mazari Sharif — Graph

°F

Mazari Sharif Temperature Yesterday

Maximum temperature yesterday: 99 °F (at 3:30 PM)
Minimum temperature yesterday: 64 °F (at 2:30 AM)
Average temperature yesterday: 83 °F

High & Low Weather Summary for the Past Weeks

 TemperatureHumidityPressure
High108 °F (Jun 10, 4:30 PM)68% (Jun 17, 3:30 AM)29.98 "Hg (Jun 17, 3:30 AM)
Low64 °F (Jun 23, 4:00 AM)9% (Jun 10, 4:30 PM)29.53 "Hg (Jun 12, 4:30 PM)
Average85 °F30%29.75 "Hg
* Reported Jun 10 4:30 PM — Jun 25 5:00 PM, Mazari Sharif, Weather by CustomWeather, © 2016

Note: Actual official high and low records may vary slightly from our data, if they occured in-between our weather recording intervals... More about our weather records

Advertising

Mazari Sharif Weather History for the Previous 24 Hours

Scroll right to see more
 ConditionsComfort  
Time TempWeatherWind HumidityBarometerVisibility
5:00 PM
Sat, Jun 25
99 °FSunny.6 mph16%29.68 "Hg10 mi
4:30 PM100 °FPassing clouds.3 mph13%29.68 "HgN/A
4:00 PM102 °FSunny.1 mph9%29.71 "Hg10 mi
3:30 PM102 °FPassing clouds.3 mph10%29.71 "HgN/A
3:00 PM100 °FPassing clouds.5 mph11%29.71 "HgN/A
2:30 PM102 °FPassing clouds.3 mph9%29.71 "HgN/A
2:00 PM100 °FSunny.2 mph12%29.74 "Hg10 mi
1:30 PM99 °FSunny.1 mph10%29.74 "Hg10 mi
1:00 PM100 °FSunny.5 mph10%29.74 "Hg10 mi
12:30 PM99 °FPassing clouds.5 mph10%29.74 "HgN/A
12:00 PM97 °FPassing clouds.6 mph12%29.77 "HgN/A
11:30 AM97 °FPassing clouds.3 mph12%29.77 "HgN/A
11:00 AM95 °FSunny.2 mph18%29.77 "Hg10 mi
10:30 AM93 °FPassing clouds.3 mph21%29.77 "HgN/A
10:00 AM90 °FSunny.2 mph21%29.80 "Hg10 mi
9:30 AM88 °FPassing clouds.3 mph24%29.80 "HgN/A
9:00 AM86 °FPassing clouds.3 mph27%29.80 "HgN/A
8:30 AM82 °FSunny.2 mph26%29.80 "Hg10 mi
8:00 AM81 °FSunny.2 mph30%29.80 "Hg10 mi
7:30 AM77 °FSunny.3 mph32%29.80 "Hg10 mi
7:00 AM75 °FSunny.3 mph36%29.77 "Hg10 mi
6:30 AM75 °FSunny.No wind47%29.77 "Hg10 mi
6:00 AM73 °FSunny.No wind53%29.77 "Hg10 mi
5:30 AM66 °FSunny.2 mph60%29.77 "Hg10 mi
5:00 AM66 °FSunny.3 mph60%29.74 "Hg10 mi
4:30 AM66 °FClear.3 mph56%29.74 "Hg10 mi
4:00 AM66 °FClear.3 mph60%29.74 "Hg10 mi
3:30 AM70 °FClear.3 mph46%29.74 "Hg10 mi
3:00 AM70 °FPassing clouds.3 mph53%29.74 "HgN/A
2:30 AM70 °FClear.2 mph50%29.71 "Hg10 mi
2:00 AM73 °FClear.3 mph36%29.71 "Hg10 mi
1:30 AM72 °FClear.3 mph47%29.71 "Hg10 mi
1:00 AM70 °FPassing clouds.3 mph43%29.71 "HgN/A
12:30 AM73 °FClear.6 mph33%29.71 "Hg10 mi
12:00 AM73 °FClear.6 mph33%29.71 "Hg10 mi
11:30 PM
Fri, Jun 24
75 °FClear.1 mph39%29.71 "Hg10 mi
11:00 PM77 °FClear.2 mph34%29.71 "Hg10 mi
10:30 PM77 °FClear.1 mph36%29.71 "Hg10 mi
10:00 PM77 °FClear.No wind39%29.74 "Hg10 mi
9:30 PM79 °FClear.2 mph34%29.71 "Hg10 mi
9:00 PM82 °FClear.No wind26%29.71 "Hg10 mi
8:30 PM84 °FClear.No wind25%29.71 "Hg10 mi
8:00 PM86 °FClear.2 mph25%29.71 "Hg10 mi
7:30 PM88 °FClear.3 mph21%29.71 "Hg10 mi
7:00 PM91 °FSunny.1 mph13%29.71 "Hg10 mi
6:30 PM95 °FSunny.2 mph13%29.71 "Hg10 mi
6:00 PM93 °FSunny.3 mph23%29.71 "Hg10 mi
Weather by CustomWeather, © 2016

See weather overviewHow to use our weather pages